Retour au catalogue

STARLINK-33784

ActifCommunicationsVLEO
NORAD 63453·PAYLOAD·🇺🇸 United States

Lancé Apr 4, 2025 depuis Vandenberg Space Force Base

Loading…

Prochains Passages (prochaines 24 heures)

TLE

FraisSource: CelesTrak SupGP

Époque: Sep 15, 2026, 02:38 UTC

1 63453C 25069W   26258.11020833  .00065936  00000+0  19486-2 0  2580
2 63453  53.1584 341.0963 0001193  82.0554  61.1187 15.34349428    11

Suivez STARLINK-33784 en temps réel avec AllMySat

Download on the App Store